EST,Max TemperatureF,Mean TemperatureF,Min TemperatureF,Max Dew PointF,MeanDew PointF,Min DewpointF,Max Humidity, Mean Humidity, Min Humidity, Max Sea Level PressureIn, Mean Sea Level PressureIn, Min Sea Level PressureIn, Max VisibilityMiles, Mean VisibilityMiles, Min VisibilityMiles, Max Wind SpeedMPH, Mean Wind SpeedMPH, Max Gust SpeedMPH,PrecipitationIn, CloudCover, Events, WindDirDegrees
2012-12-1,48,42,37,43,37,25,93,82,62,30.59,30.53,30.47,10,10,6,15,10,16,0.08,8,Rain,94
2012-12-2,54,51,48,51,49,45,100,91,86,30.45,30.26,30.13,10,7,2,17,12,,0.00,6,,173
2012-12-3,55,46,37,49,43,38,100,85,67,30.29,30.15,30.07,10,7,3,17,11,,0.00,4,,263
2012-12-4,52,44,37,50,44,37,100,97,83,30.34,30.27,30.07,10,5,0,14,6,,0.01,2,Fog-Rain,117
2012-12-5,55,47,39,53,43,24,97,78,53,30.06,29.95,29.88,10,8,4,22,14,32,0.01,4,Rain,267
2012-12-6,39,32,26,27,24,20,92,69,55,30.32,30.26,30.10,10,10,10,22,13,31,0.00,5,,339
2012-12-7,48,38,28,48,39,25,100,85,71,30.31,30.18,30.07,10,10,10,14,5,,0.00,6,,187
2012-12-8,55,50,46,55,50,46,100,98,93,30.06,29.94,29.84,10,4,0,18,6,25,0.44,8,Fog-Rain,194
2012-12-9,50,48,45,48,44,36,100,87,63,30.27,30.17,29.99,10,8,3,18,10,26,0.07,6,Rain,8
2012-12-10,57,52,46,57,53,44,100,99,93,30.09,29.77,29.55,6,2,0,22,16,30,0.48,7,Fog-Rain,181
2012-12-11,55,47,37,55,46,26,100,89,62,30.14,29.77,29.57,10,6,0,18,11,22,0.02,6,Fog-Rain,287
2012-12-12,39,36,34,29,26,23,70,64,57,30.41,30.31,30.16,10,10,10,14,12,22,0.00,0,,337
2012-12-13,45,38,30,29,27,25,85,63,49,30.43,30.38,30.31,10,10,10,13,7,,0.00,3,,9
2012-12-14,46,38,30,37,31,26,82,70,56,30.29,30.18,30.10,10,10,10,21,9,29,0.00,1,,281
2012-12-15,44,37,30,33,29,25,82,69,58,30.31,30.26,30.17,10,10,10,15,10,22,0.00,0,,360
2012-12-16,43,36,30,43,34,24,100,84,65,30.30,30.13,29.99,10,6,2,23,13,32,0.27,7,Rain,93
2012-12-17,50,47,44,49,47,43,100,96,93,29.99,29.86,29.71,10,6,2,20,16,29,0.21,8,Rain,76
2012-12-18,52,48,45,52,49,44,100,97,88,29.69,29.53,29.44,10,5,1,15,10,20,0.33,7,Rain,164
2012-12-19,46,44,41,45,36,33,93,78,65,29.96,29.67,29.44,10,10,10,29,18,39,0.01,7,Rain,314
2012-12-20,44,42,39,38,35,33,89,81,66,30.17,30.08,29.96,10,10,10,22,15,32,0.01,6,Rain,6
2012-12-21,54,48,42,52,45,33,100,87,68,30.00,29.44,29.17,10,6,1,37,22,50,0.70,8,Rain,154
2012-12-22,43,38,33,36,29,18,89,71,52,29.67,29.42,29.30,10,10,6,24,17,37,0.01,7,Rain,274
2012-12-23,41,38,34,31,25,18,70,60,47,29.91,29.84,29.68,10,10,10,24,18,37,0.00,3,,275
2012-12-24,39,34,30,33,25,23,86,67,53,30.08,30.02,29.91,10,10,10,14,7,,0.00,1,Rain,293
2012-12-25,46,40,35,45,39,32,100,92,86,30.17,30.01,29.93,10,9,3,20,8,29,0.14,8,Rain,31
2012-12-26,41,38,34,38,32,27,93,78,65,30.28,30.15,29.86,10,9,6,28,12,39,0.23,6,Rain,51
2012-12-27,52,42,33,52,44,29,100,95,85,29.80,29.38,29.21,10,4,0,39,19,59,0.98,8,Fog-Rain-Snow,156
2012-12-28,37,34,30,30,25,22,87,72,59,30.01,29.83,29.56,10,9,2,23,18,34,0.00,3,Snow,306
2012-12-29,44,34,25,43,35,22,100,90,73,30.01,29.48,29.08,10,6,2,45,14,58,1.34,7,Rain-Snow,25
2012-12-30,36,32,27,34,24,13,93,73,51,29.95,29.58,29.27,10,10,7,31,25,44,0.03,4,Snow,311
2012-12-31,39,32,26,31,21,11,76,62,53,30.06,29.97,29.81,10,10,10,26,19,40,0.00,2,,282